Showing default

BESSA, 68836

Orbit data source: Space-Track

BESSA, 68836 is a Portuguese payload satellite in SSO that was launched on Mon, 30 Mar 2026 UTC via an FALCON 9 launch vehicle from the Air Force Western Test Range (AFWTR). Payload-class satellites include a variety of spacecraft equipped with specific instruments for various scientific and technological missions. These include communications satellites like Starlink; space stations such as the ISS; scientific satellites like the Hubble; Earth observation satellites from companies like Planet Labs, Umbra, and HawkEye 360; GPS; miniature CubeSats for education and research; and military/defense satellites.

Loading next visibility...
Identifier
68836, 2026-067CX
Orbit
SSO
Country
Flag of PTPT / POR
Related business
Manufacturer
LUSO
Mission
Operational Commercial Communications
Bus & Motor
CUBESAT 8U, Unknown motor
Mass
~15 kg wet, ~15 kg dry
Launch date (UTC)
2026-03-30 (4 months ago)
Launch vehicle
FALCON 9
Launch site
Air Force Western Test Range (AFWTR)
Object type
Payload
Rocket body
Debris
Shape & HBR
Box, 14.5 m
Radar Cross Section
0.070 m², Medium (>0.1 m² and < 1m²)

Expand to show TLE details & history
Last TLE update: 7 hours ago

TLE from 7 hours ago
0 BESSA
1 68836U 26067CX  26220.11942111  .00003962  00000-0  19250-3 0  9994
2 68836  97.4555 177.8895 0010202 180.3598 179.7631 15.18982226 19628
Epoch: 2026-08-08T02:51Z
TLE epoch observation values (Epoch: 2026-08-08T02:51:57.983Z)
Latitude
-0.00004°
Longitude
178.26257°
Altitude
519.03 km
Speed
7.6 km/s
True Right ascension
11h 51m 33s
True Declination
0° 00' 00"
Sunlit
Object was in daylight at epoch
Visualization orbit readout
Latitude
Unknown
Longitude
Unknown
Altitude
Unknown
Speed
Unknown
Apparent Right ascension
Unknown
Apparent Declination
Unknown
Sunlit
N/A
Visualization observer readout
Local Sidereal Time
00:14:59
Azimuth
Unknown
Elevation
Unknown
Doppler factor
Unknown
Orbital elements
Apogee altitude
512.908 km
Perigee altitude
498.862 km
Semi-major axis
6,884.022 km
Eccentricity
0.00102
Inclination
97.4555°
RAAN
177.8895°
Arg. of periapsis
180.3598°
True anomaly
179.76358°
Mean anomaly
179.7631°
Eccentric anomaly
179.76334°
Mean motion
3.79997 °/min
Orbital period
94.74 mins
BSTAR
0.0001925
Loading maneuver chart data...
Computing Atmospheric mass density...
Loading historical data...
Loading historical data...
Loading historical data...
Loading historical data...
Loading historical data...
Loading historical data...
Loading historical data...

Documentation

Showing up to 5 results
|